Location: Street
(51.1247°N, 2.7429°W)
Time: 06:54:29
(UTC+00:00)

SR - Pass Details

Date: 26 November 2020
Orbit: 576 x 880 km, 66.7° (Epoch: 16 January)

Event Time Altitude Azimuth Distance (km) Brightness Sun altitude
Rises 00:38:07 0° 316° (NW) 3,021 - -58.9°
Reaches altitude 10° 00:41:19 10° 339° (NNW) 2,170 - -58.7°
Maximum altitude 00:44:16 16° 16° (NNE) 1,875 - -58.6°
Drops below altitude 10° 00:47:21 10° 52° (NE) 2,291 - -58.4°
Sets 00:50:52 0° 75° (ENE) 3,285 - -58.2°
